Location: Albuquerque Trailhead
(34.7934°N, 106.3736°W)
Time: 01:46:19
(UTC+00:00)

CZ-2C R/B - Pass Details

Date: 20 June 2021
Orbit: 389 x 579 km, 35.0° (Epoch: 27 July)

Event Time Altitude Azimuth Distance (km) Brightness Sun altitude
Exits shadow 10:05:41 20° 150° (SSE) 1,052 2.6 -18.0°
Drops below altitude 10° 10:08:03 10° 105° (ESE) 1,490 3.9 -17.7°
Sets 10:10:28 0° 88° (E) 2,325 5.2 -17.3°
